Location: Unspecified
(0.0000°N, 0.0000°E)
Time: 03:56:49
(UTC+02:00)

ISS - Visible Passes

Search period start: 16 August 2018 00:00
Search period end: 26 August 2018 00:00
Orbit: 402 x 409 km, 51.6° (Epoch: 16 August)

Date Brightness Start Highest point End Pass type
(mag) Time Alt. Az. Time Alt. Az. Time Alt. Az.
16 Aug -3.8 21:25:45 10° NW 21:28:57 79° WSW 21:28:57 79° WSW visible
17 Aug -2.9 20:34:09 10° NNW 20:37:07 33° NE 20:39:58 11° ESE visible
18 Aug -1.3 21:19:08 10° W 21:21:30 18° SW 21:23:45 11° S visible
19 Aug -2.9 20:26:24 10° NW 20:29:33 50° SW 20:32:46 10° SSE visible
21 Aug -2.0 07:08:50 10° S 07:11:45 29° SE 07:14:38 10° ENE visible
22 Aug -0.8 06:18:58 11° SE 06:19:46 12° SE 06:21:02 10° ESE visible
23 Aug -3.8 07:02:44 30° WSW 07:04:07 57° NW 07:07:18 10° NNE visible
24 Aug -1.5 06:13:43 24° ENE 06:13:43 24° ENE 06:15:16 10° NE visible
25 Aug -1.5 06:57:21 13° NW 06:57:21 13° NW 06:58:17 10° NNW visible
